Weather History for KAIO - May, 2013

Change the Weather History Date:

Monday, May 13, 2013

  Actual Average (KADU) Record (KADU)
Temperature  
Mean Temperature 60 °F -  
Max Temperature 80 °F 72 °F - (-1)
Min Temperature 39 °F 45 °F - (-1)
Degree Days  
Heating Degree Days 6    
Growing Degree Days 10 (Base 50)    
Moisture  
Dew Point 41 °F    
Average Humidity 54    
Maximum Humidity 87    
Minimum Humidity 24    
Precipitation  
Precipitation 0.00 in - - ()
Sea Level Pressure  
Sea Level Pressure 30.01 in    
Wind  
Wind Speed 6 mph (SSW)    
Max Wind Speed 24 mph    
Max Gust Speed 33 mph    
Visibility 10 miles    
Events      
Averages and records for this station are not official NWS values.
T = Trace of Precipitation, MM = Missing Value Source: NWS Daily Summary

Daily Weather History Graph

Daily Weather History Graph

Search for Another Location

Airport or City:

Trip Planner

Search our weather history database for the weather conditions in past years. The results will help you decide how hot, cold, wet, or windy it might be!

Date:

Astronomy

May. 13, 2013 Rise Set
Actual Time 6:03 AM CDT 8:30 PM CDT
Civil Twilight 5:31 AM CDT 9:02 PM CDT
Nautical Twilight 4:52 AM CDT 9:41 PM CDT
Astronomical Twilight 4:09 AM CDT 10:24 PM CDT
Moon 8:49 AM CDT (5/13) 11:40 PM CDT (5/13)
Length of Visible Light 15h 30m
Length of Day
14h 27m
Waxing Crescent, 12% of the Moon is Illuminated
May 13
Waxing Crescent
May 17
First Quarter
May 24
Full
May 31
Last Quarter
Jun 8
New

Hourly Weather History & Observations

Time (CDT) Temp. Windchill Dew Point Humidity Pressure Visibility Wind Dir Wind Speed Gust Speed Precip Events Conditions
12:15 AM 41.0 °F - 33.8 °F 76% 30.14 in 10.0 mi Calm Calm - N/A   Mostly Cloudy
12:35 AM 41.0 °F - 33.8 °F 76% 30.14 in 10.0 mi Calm Calm - N/A   Overcast
12:55 AM 41.0 °F - 33.8 °F 76% 30.13 in 10.0 mi Calm Calm - N/A   Mostly Cloudy
1:15 AM 39.2 °F - 33.8 °F 81% 30.13 in 10.0 mi Calm Calm - N/A   Mostly Cloudy
1:35 AM 39.2 °F - 33.8 °F 81% 30.13 in 10.0 mi Calm Calm - N/A   Mostly Cloudy
1:55 AM 39.2 °F - 33.8 °F 81% 30.13 in 10.0 mi Calm Calm - N/A   Mostly Cloudy
2:15 AM 39.2 °F 37.0 °F 33.8 °F 81% 30.13 in 10.0 mi North 3.5 mph - N/A   Overcast
2:35 AM 41.0 °F - 33.8 °F 76% 30.12 in 10.0 mi Calm Calm - N/A   Overcast
2:55 AM 41.0 °F - 35.6 °F 81% 30.11 in 10.0 mi Calm Calm - N/A   Mostly Cloudy
3:15 AM 39.2 °F - 35.6 °F 87% 30.11 in 10.0 mi Calm Calm - N/A   Mostly Cloudy
3:35 AM 39.2 °F - 35.6 °F 87% 30.11 in 10.0 mi Calm Calm - N/A   Mostly Cloudy
3:55 AM 39.2 °F 37.0 °F 35.6 °F 87% 30.11 in 10.0 mi North 3.5 mph - N/A   Mostly Cloudy
4:15 AM 41.0 °F - 35.6 °F 81% 30.11 in 10.0 mi Calm Calm - N/A   Scattered Clouds
4:35 AM 41.0 °F - 35.6 °F 81% 30.11 in 10.0 mi Calm Calm - N/A   Scattered Clouds
4:55 AM 41.0 °F - 33.8 °F 76% 30.10 in 10.0 mi Calm Calm - N/A   Scattered Clouds
5:15 AM 41.0 °F - 33.8 °F 76% 30.10 in 10.0 mi Calm Calm - N/A   Scattered Clouds
5:35 AM 39.2 °F - 35.6 °F 87% 30.10 in 10.0 mi Calm Calm - N/A   Partly Cloudy
5:55 AM 41.0 °F - 33.8 °F 76% 30.09 in 10.0 mi Calm Calm - N/A   Clear
6:15 AM 42.8 °F - 35.6 °F 76% 30.09 in 10.0 mi Calm Calm - N/A   Clear
6:35 AM 41.0 °F 39.0 °F 37.4 °F 87% 30.11 in 10.0 mi NE 3.5 mph - N/A   Clear
6:55 AM 41.0 °F - 35.6 °F 81% 30.12 in 10.0 mi Calm Calm - N/A   Clear
7:15 AM 42.8 °F - 37.4 °F 81% 30.12 in 10.0 mi Calm Calm - N/A   Clear
7:35 AM 46.4 °F - 39.2 °F 76% 30.11 in 10.0 mi Calm Calm - N/A   Clear
7:55 AM 48.2 °F - 37.4 °F 66% 30.11 in 10.0 mi Calm Calm - N/A   Clear
8:15 AM 51.8 °F - 37.4 °F 58% 30.11 in 10.0 mi Variable 4.6 mph - N/A   Clear
8:35 AM 55.4 °F - 39.2 °F 54% 30.11 in 10.0 mi South 9.2 mph - N/A   Clear
8:55 AM 57.2 °F - 39.2 °F 51% 30.10 in 10.0 mi South 10.4 mph - N/A   Clear
9:15 AM 59.0 °F - 41.0 °F 51% 30.10 in 10.0 mi South 9.2 mph - N/A   Clear
9:35 AM 60.8 °F - 41.0 °F 48% 30.08 in 10.0 mi South 10.4 mph - N/A   Clear
9:55 AM 62.6 °F - 42.8 °F 48% 30.07 in 10.0 mi South 12.7 mph - N/A   Clear
10:15 AM 64.4 °F - 42.8 °F 45% 30.07 in 10.0 mi South 15.0 mph 21.9 mph N/A   Clear
10:35 AM 66.2 °F - 42.8 °F 43% 30.07 in 10.0 mi South 17.3 mph - N/A   Clear
10:55 AM 68.0 °F - 42.8 °F 40% 30.06 in 10.0 mi SSW 16.1 mph - N/A   Clear
11:15 AM 69.8 °F - 42.8 °F 38% 30.05 in 10.0 mi SSW 16.1 mph - N/A   Clear
11:35 AM 69.8 °F - 44.6 °F 40% 30.05 in 10.0 mi SSW 15.0 mph - N/A   Clear
11:55 AM 71.6 °F - 44.6 °F 38% 30.04 in 10.0 mi South 17.3 mph - N/A   Clear
12:15 PM 71.6 °F - 44.6 °F 38% 30.03 in 10.0 mi South 16.1 mph - N/A   Clear
12:35 PM 73.4 °F - 44.6 °F 36% 30.02 in 10.0 mi SSW 19.6 mph 26.5 mph N/A   Clear
12:55 PM 73.4 °F - 44.6 °F 36% 30.01 in 10.0 mi South 15.0 mph 24.2 mph N/A   Clear
1:15 PM 73.4 °F - 42.8 °F 33% 30.00 in 10.0 mi South 18.4 mph - N/A   Clear
1:35 PM 75.2 °F - 44.6 °F 34% 29.99 in 10.0 mi South 13.8 mph 25.3 mph N/A   Clear
1:55 PM 75.2 °F - 44.6 °F 34% 29.98 in 10.0 mi South 19.6 mph 26.5 mph N/A   Clear
2:15 PM 77.0 °F - 42.8 °F 29% 29.96 in 10.0 mi South 17.3 mph 28.8 mph N/A   Clear
2:35 PM 77.0 °F - 44.6 °F 32% 29.96 in 10.0 mi South 20.7 mph 26.5 mph N/A   Clear
3:35 PM 78.8 °F - 44.6 °F 30% 29.94 in 10.0 mi South 19.6 mph 32.2 mph N/A   Clear
3:55 PM 78.8 °F - 44.6 °F 30% 29.92 in 10.0 mi SSW 23.0 mph 33.4 mph N/A   Clear
4:15 PM 80.6 °F - 42.8 °F 26% 29.91 in 10.0 mi SSW 23.0 mph 29.9 mph N/A   Clear
4:35 PM 80.6 °F - 42.8 °F 26% 29.91 in 10.0 mi SSW 20.7 mph 33.4 mph N/A   Clear
4:55 PM 80.6 °F - 42.8 °F 26% 29.90 in 10.0 mi SSW 24.2 mph 32.2 mph N/A   Clear
5:15 PM 80.6 °F - 42.8 °F 26% 29.89 in 10.0 mi SSW 23.0 mph - N/A   Clear
5:35 PM 80.6 °F - 42.8 °F 26% 29.89 in 10.0 mi SSW 24.2 mph 32.2 mph N/A   Clear
5:55 PM 80.6 °F - 42.8 °F 26% 29.88 in 10.0 mi SSW 21.9 mph 29.9 mph N/A   Clear
6:35 PM 80.6 °F - 41.0 °F 24% 29.87 in 10.0 mi SSW 24.2 mph 32.2 mph N/A   Clear
7:15 PM 78.8 °F - 42.8 °F 28% 29.87 in 10.0 mi SSW 15.0 mph 23.0 mph N/A   Clear
7:35 PM 77.0 °F - 44.6 °F 32% 29.86 in 10.0 mi SSW 17.3 mph - N/A   Clear
7:55 PM 77.0 °F - 46.4 °F 34% 29.86 in 10.0 mi SSW 15.0 mph 21.9 mph N/A   Clear
8:15 PM 75.2 °F - 46.4 °F 36% 29.86 in 10.0 mi SSW 15.0 mph 21.9 mph N/A   Clear
8:35 PM 73.4 °F - 48.2 °F 41% 29.86 in 10.0 mi South 11.5 mph 18.4 mph N/A   Clear
8:55 PM 71.6 °F - 48.2 °F 43% 29.85 in 10.0 mi South 12.7 mph - N/A   Clear
9:15 PM 71.6 °F - 48.2 °F 43% 29.86 in 10.0 mi South 12.7 mph - N/A   Clear
9:35 PM 69.8 °F - 50.0 °F 49% 29.86 in 10.0 mi South 12.7 mph - N/A   Clear
9:55 PM 69.8 °F - 50.0 °F 49% 29.86 in 10.0 mi South 12.7 mph - N/A   Clear
10:15 PM 68.0 °F - 50.0 °F 52% 29.86 in 10.0 mi South 12.7 mph - N/A   Clear
10:35 PM 68.0 °F - 50.0 °F 52% 29.87 in 10.0 mi South 11.5 mph - N/A   Clear
10:55 PM 66.2 °F - 50.0 °F 56% 29.86 in 10.0 mi SSW 9.2 mph - N/A   Clear
11:15 PM 66.2 °F - 51.8 °F 60% 29.86 in 3.0 mi SSW 8.1 mph - N/A   Haze
11:35 PM 64.4 °F - 51.8 °F 64% 29.86 in 10.0 mi South 8.1 mph - N/A   Clear
11:55 PM 64.4 °F - 51.8 °F 64% 29.86 in 10.0 mi South 9.2 mph - N/A   Clear